Regional Weather Roundup
Issued by NWS

Home | Current Version | Previous Version | Text Only | Print | Product List | Glossary On
Versions: 1 2 3 4 5 6 7 8 9 10 11 12 13 14 15 16 17 18 19 20 21 22 23 24 25 26 27 28 29 30 31 32 33 34 35 36 37 38 39 40 41 42 43 44 45 46 47 48 49 50
000
ASUS43 KTOP 271808
RWRKS

WEATHER ROUNDUP FOR KANSAS
NATIONAL WEATHER SERVICE GOODLAND KS
1200 PM CST THU NOV 27 2014

NOTE:  "FAIR" INDICATES FEW OR NO CLOUDS BELOW 12,000 FEET WITH NO
SIGNIFICANT WEATHER AND/OR OBSTRUCTIONS TO VISIBILITY.

KSZ001>006-013>018-027>032-041>047-271900-
NORTHWEST KANSAS

CITY           SKY/WX    TMP DP  RH WIND       PRES   REMARKS
GOODLAND       SUNNY     57  30  35 SW16      30.20F
6HR MIN TEMP:  23; 6HR MAX TEMP:  57;

HAYS           MOSUNNY   43  18  36 S17G24    30.34F
HILL CITY      SUNNY     43  21  41 S18       30.29F
6HR MIN TEMP:  21; 6HR MAX TEMP:  44;

RUSSELL        SUNNY     39  20  46 S15       30.35F WCI  31
6HR MIN TEMP:  18; 6HR MAX TEMP:  39;

$$

KSZ061>065-074>080-084>089-271900-
SOUTHWEST KANSAS

CITY           SKY/WX    TMP DP  RH WIND       PRES   REMARKS
DODGE CITY     SUNNY     46  19  34 S24       30.32F
6HR MIN TEMP:  20; 6HR MAX TEMP:  46;

ELKHART          N/A     53  29  39 S9          N/A
GARDEN CITY    SUNNY     48  24  39 SW22G31   30.27F
6HR MIN TEMP:  19; 6HR MAX TEMP:  48;

GREAT BEND     SUNNY     41  19  42 S24       30.37F
LIBERAL        MOSUNNY   46  25  42 S20       30.33F
PRATT          MOSUNNY   39  21  48 S15       30.41F WCI  31
$$

KSZ066>073-081>083-090>101-271900-
SOUTHEAST KANSAS

CITY           SKY/WX    TMP DP  RH WIND       PRES   REMARKS
CHANUTE        SUNNY     35  23  61 CALM      30.52F
6HR MIN TEMP:  20; 6HR MAX TEMP:  36;

COFFEYVILLE    MOSUNNY   36  24  62 S6        30.54F
6HR MIN TEMP:  22; 6HR MAX TEMP:  36;

HUTCHINSON     SUNNY     40  18  41 S15       30.44F WCI  32
6HR MIN TEMP:  17; 6HR MAX TEMP:  40;

MEDICINE LODGE   N/A     39  21  48 S16       30.43F WCI  30
NEWTON         SUNNY     37  19  48 S9        30.47F
PARSONS        SUNNY     38  25  59 CALM      30.54F
6HR MIN TEMP:  19; 6HR MAX TEMP:  38;

WICHITA INTL   MOSUNNY   40  19  43 S10       30.47F WCI  33
6HR MIN TEMP:  21; 6HR MAX TEMP:  40;

WICHITA JABRA  SUNNY     39  19  44 S8        30.47F
6HR MIN TEMP:  19; 6HR MAX TEMP:  39;

WICHITA MCCONL SUNNY     40  17  38 SW8       30.48F
WINFIELD       SUNNY     40  22  48 S7        30.50F
6HR MIN TEMP:  22; 6HR MAX TEMP:  40;

$$

KSZ007>012-019>026-033>040-048>060-102>105-271900-
NORTHEAST KANSAS

CITY           SKY/WX    TMP DP  RH WIND       PRES   REMARKS
CONCORDIA      SUNNY     33  17  51 S10       30.41F WCI  25
6HR MIN TEMP:  14; 6HR MAX TEMP:  33;

EMPORIA        SUNNY     33  21  61 VRB3      30.49F
6HR MIN TEMP:  17; 6HR MAX TEMP:  33;

LAWRENCE       SUNNY     31  20  63 S5        30.51F HAZE
6HR MIN TEMP:  24; 6HR MAX TEMP:  32;

MANHATTAN      SUNNY     33  20  58 MISG      30.47F
6HR MIN TEMP:  14; 6HR MAX TEMP:  33;

MARYSVILLE     SUNNY     32  19  59 S6        30.44F
OLATHE IND     SUNNY     31  21  66 VRB3      30.50F
6HR MIN TEMP:  20; 6HR MAX TEMP:  31; 6HR PCP: TRACE;

OLATHE EXE     SUNNY     32  21  64 S6        30.48F
6HR MIN TEMP:  23; 6HR MAX TEMP:  33;

SALINA         SUNNY     36  19  50 SE10      30.45F WCI  28
6HR MIN TEMP:  18; 6HR MAX TEMP:  36;

TOPEKA BILLARD SUNNY     33  21  61 CALM      30.51F
6HR MIN TEMP:  25; 6HR MAX TEMP:  33;

TOPEKA FORBES  SUNNY     34  21  59 CALM      30.49F
6HR MIN TEMP:  24; 6HR MAX TEMP:  34;

$$


USA.gov is the U.S. government's official web portal to all federal, state and local government web resources and services.